Location: Ahausen
(50.4985°N, 8.2722°E)
Time: 09:44:02
(UTC+00:00)

SEEDS - Visible Passes

Search period start: 29 June 2022 00:00
Search period end: 09 July 2022 00:00
Orbit: 580 x 599 km, 97.6° (Epoch: 28 June)

Date Brightness Start Highest point End Pass type
(mag) Time Alt. Az. Time Alt. Az. Time Alt. Az.
06 Jul ? 02:26:12 10° ENE 02:27:47 12° E 02:29:23 10° ESE visible
07 Jul ? 02:33:27 10° NE 02:35:42 14° E 02:37:58 10° ESE visible
08 Jul ? 02:40:53 10° NE 02:43:37 17° E 02:46:19 10° SE visible
